VOLGA R/B, 44425

Orbit data source: Space-Track

VOLGA R/B, 44425 is space debris in SSO originally from a launch on Wed, 10 Jul 2019 UTC launched from the Plesetsk Missile And Space Complex (PKMTR). Debris objects in space refer to the collection of defunct objects orbiting the Earth. Examples of debris include non-operational satellites, rocket bodies, and fragments generated from explosions, collisions, or faulty payload assembly.

Not visible in the next 10 days
Identifier
44425, 2019-039E
Orbit
SSO
Last TLE update
17 hours ago
Origin
Manufacturer
TsSKB-Progress
Mission
Spacecraft
Bus & Motor
VOLGA, Unknown motor
Mass
~1,120 kg wet, 1,120 kg dry
Launch date (UTC)
2019-07-10 (6 years ago)
Launch vehicle
Unknown
Launch site
Plesetsk Missile And Space Complex (PKMTR)
Object type
Payload
Rocket body
Debris
Shape & HBR
Cyl, 3.2 m
Radar Cross Section
6.585 m², Large (>1 m²)

Expand to show TLE details & history

TLE from 17 hours ago
0 VOLGA R/B
1 44425U 19039E   25130.85795952  .00135783  00000-0  51340-3 0  9995
2 44425  97.4445 250.0856 0003738  52.7736 307.3876 15.87340192326321
Epoch: 2025-05-10T20:35Z
Definitive object data (Epoch: 2025-05-10T20:35:27.702Z)
Latitude
-0.00001°
Longitude
72.32645°
Altitude
311.406 km
Speed
7.722 km/s
True Right ascension
16h 40m 20s
True Declination
0° 00' 00"
Sunlit
Object was in full shadow at TLE epoch
Visualization TLE readout
Latitude
12.63822°
Longitude
-105.21512°
Altitude
312.792 km
Speed
7.721 km/s
Apparent Right ascension
07h 04m 19s
Apparent Declination
-16° 37' 59"
Sunlit
Object is in daylight
Visualization observer readout
Local Sidereal Time
22:14:02
Azimuth
74.447° E
Elevation
-42.909°
Doppler factor
1
Orbital elements
Apogee altitude
309.121 km
Perigee altitude
304.123 km
Semi-major axis
6,684.759 km
Eccentricity
0.0003738
Inclination
97.4445°
RAAN
250.0856°
Arg. of periapsis
52.7736°
True anomaly
307.35356°
Mean anomaly
307.3876°
Eccentric anomaly
307.37058°
Mean motion
3.97113 °/min
BSTAR
0.0005134
Orbital period
90.65 mins
Loading maneuver chart data...
Loading SW <> Apogee altitude chart data...

VOLGA R/B Visibility forecast

Observer location: undefined°, undefined°

VOLGA R/B is not visible in the next 10 days
Span
Click to sort rows by Start time (UTC) header in descending order
Start Az.
Max El. time (UTC)
Max El. Az.
Max El.
End time (UTC)
End Az.
|